Location: *
(35.2348°S, 91.3916°E)
Time: 13:46:43
(UTC+00:00)

SL-16 R/B - Pass Details

Date: 23 October 2019
Orbit: 842 x 846 km, 71.0° (Epoch: 11 November)

Event Time Altitude Azimuth Distance (km) Brightness Sun altitude
Rises 16:45:35 0° 206° (SSW) 3,429 6.2 -41.6°
Reaches altitude 10° 16:48:05 10° 209° (SSW) 2,487 5.3 -41.8°
Enters shadow 16:49:39 19° 213° (SSW) 1,913 4.5 -41.9°
